Wetterdaten: Freitag, 21.11.2014
Datum Zeit Temp. A. Feuchte A. Luftdruck Regen Wind Richtung Richtung Sonnenschein ET UV Solar Taupunkt Windchill Windben Empfang
21.11.2014 00:00 4,6 C 75 % 1025,7 hPa 0,0 l/m 0,0 km/h (0 Bft) SW 227 0 min 0,000 mm 0,0 UV-I 0 W/m 0,6 C 4,6 C 0,0 km/h (0 Bft) 0,00 %
21.11.2014 00:15 4,6 C 75 % 1025,8 hPa 0,0 l/m 0,0 km/h (0 Bft) O-SO 111 0 min 0,000 mm 0,0 UV-I 0 W/m 0,6 C 4,6 C 0,0 km/h (0 Bft) 0,00 %
21.11.2014 00:30 4,5 C 74 % 1025,7 hPa 0,0 l/m 0,0 km/h (0 Bft) W-SW 252 0 min 0,000 mm 0,0 UV-I 0 W/m 0,3 C 4,5 C 0,0 km/h (0 Bft) 0,00 %
21.11.2014 00:45 4,5 C 75 % 1025,6 hPa 0,0 l/m 0,0 km/h (0 Bft) S 177 0 min 0,000 mm 0,0 UV-I 0 W/m 0,5 C 4,5 C 0,0 km/h (0 Bft) 0,00 %
21.11.2014 01:00 4,4 C 76 % 1025,5 hPa 0,0 l/m 0,0 km/h (0 Bft) S 176 0 min 0,000 mm 0,0 UV-I 0 W/m 0,5 C 4,4 C 0,0 km/h (0 Bft) 0,00 %
21.11.2014 01:15 4,3 C 76 % 1025,3 hPa 0,0 l/m 0,0 km/h (0 Bft) S 173 0 min 0,000 mm 0,0 UV-I 0 W/m 0,5 C 4,3 C 0,0 km/h (0 Bft) 0,00 %
21.11.2014 01:30 4,3 C 78 % 1025,5 hPa 0,0 l/m 0,0 km/h (0 Bft) S 173 0 min 0,000 mm 0,0 UV-I 0 W/m 0,8 C 4,3 C 0,0 km/h (0 Bft) 0,00 %
21.11.2014 01:45 4,2 C 79 % 1025,6 hPa 0,0 l/m 0,0 km/h (0 Bft) S 173 0 min 0,000 mm 0,0 UV-I 0 W/m 0,9 C 4,2 C 0,0 km/h (0 Bft) 0,00 %
21.11.2014 02:00 4,1 C 78 % 1025,5 hPa 0,0 l/m 0,0 km/h (0 Bft) S 174 0 min 0,000 mm 0,0 UV-I 0 W/m 0,6 C 4,1 C 0,0 km/h (0 Bft) 0,00 %
21.11.2014 02:15 4,2 C 77 % 1025,6 hPa 0,0 l/m 0,0 km/h (0 Bft) SO 140 0 min 0,000 mm 0,0 UV-I 0 W/m 0,5 C 4,2 C 0,0 km/h (0 Bft) 0,00 %
21.11.2014 02:30 4,3 C 76 % 1025,4 hPa 0,0 l/m 0,0 km/h (0 Bft) O-SO 109 0 min 0,000 mm 0,0 UV-I 0 W/m 0,5 C 4,3 C 0,0 km/h (0 Bft) 0,00 %
21.11.2014 02:45 4,5 C 75 % 1025,4 hPa 0,0 l/m 0,0 km/h (0 Bft) S-SO 164 0 min 0,000 mm 0,0 UV-I 0 W/m 0,5 C 4,5 C 0,0 km/h (0 Bft) 0,00 %
21.11.2014 03:00 4,3 C 76 % 1025,3 hPa 0,0 l/m 0,0 km/h (0 Bft) S-SO 157 0 min 0,000 mm 0,0 UV-I 0 W/m 0,5 C 4,3 C 0,0 km/h (0 Bft) 0,00 %
21.11.2014 03:15 4,3 C 76 % 1025,3 hPa 0,0 l/m 0,0 km/h (0 Bft) SO 136 0 min 0,000 mm 0,0 UV-I 0 W/m 0,5 C 4,3 C 0,0 km/h (0 Bft) 0,00 %
21.11.2014 03:30 4,2 C 77 % 1025,5 hPa 0,0 l/m 0,0 km/h (0 Bft) O 98 0 min 0,000 mm 0,0 UV-I 0 W/m 0,5 C 4,2 C 0,0 km/h (0 Bft) 0,00 %
21.11.2014 03:45 4,1 C 77 % 1025,5 hPa 0,0 l/m 0,0 km/h (0 Bft) S-SW 193 0 min 0,000 mm 0,0 UV-I 0 W/m 0,4 C 4,1 C 0,0 km/h (0 Bft) 0,00 %
21.11.2014 04:00 4,1 C 76 % 1025,4 hPa 0,0 l/m 0,0 km/h (0 Bft) O-NO 75 0 min 0,000 mm 0,0 UV-I 0 W/m 0,3 C 4,1 C 0,0 km/h (0 Bft) 0,00 %
21.11.2014 04:15 4,0 C 76 % 1025,5 hPa 0,0 l/m 0,0 km/h (0 Bft) W-SW 256 0 min 0,000 mm 0,0 UV-I 0 W/m 0,2 C 4,0 C 0,0 km/h (0 Bft) 0,00 %
21.11.2014 04:30 3,9 C 77 % 1025,4 hPa 0,0 l/m 0,0 km/h (0 Bft) S 174 0 min 0,000 mm 0,0 UV-I 0 W/m 0,2 C 3,9 C 0,0 km/h (0 Bft) 0,00 %
21.11.2014 04:45 3,8 C 77 % 1025,5 hPa 0,0 l/m 0,0 km/h (0 Bft) S 174 0 min 0,000 mm 0,0 UV-I 0 W/m 0,1 C 3,8 C 0,0 km/h (0 Bft) 0,00 %
21.11.2014 05:00 4,2 C 75 % 1025,2 hPa 0,0 l/m 0,0 km/h (0 Bft) W 277 0 min 0,000 mm 0,0 UV-I 0 W/m 0,2 C 4,2 C 0,0 km/h (0 Bft) 0,00 %
21.11.2014 05:15 4,3 C 75 % 1025,2 hPa 0,0 l/m 0,0 km/h (0 Bft) S-SW 193 0 min 0,000 mm 0,0 UV-I 0 W/m 0,3 C 4,3 C 0,0 km/h (0 Bft) 0,00 %
21.11.2014 05:30 4,5 C 72 % 1025,2 hPa 0,0 l/m 1,8 km/h (1 Bft) O-SO 106 0 min 0,000 mm 0,0 UV-I 0 W/m -0,1 C 4,5 C 4,0 km/h (1 Bft) 0,00 %
21.11.2014 05:45 4,5 C 74 % 1025,1 hPa 0,0 l/m 0,0 km/h (0 Bft) S 190 0 min 0,000 mm 0,0 UV-I 0 W/m 0,3 C 4,5 C 0,0 km/h (0 Bft) 0,00 %
21.11.2014 06:00 4,3 C 76 % 1025,0 hPa 0,0 l/m 0,0 km/h (0 Bft) S 174 0 min 0,000 mm 0,0 UV-I 0 W/m 0,5 C 4,3 C 0,0 km/h (0 Bft) 0,00 %
21.11.2014 06:15 4,2 C 75 % 1025,0 hPa 0,0 l/m 0,0 km/h (0 Bft) O-SO 116 0 min 0,000 mm 0,0 UV-I 0 W/m 0,2 C 4,2 C 0,0 km/h (0 Bft) 0,00 %
21.11.2014 06:30 4,2 C 75 % 1024,7 hPa 0,0 l/m 0,4 km/h (0 Bft) O-SO 105 0 min 0,000 mm 0,0 UV-I 0 W/m 0,2 C 4,2 C 4,0 km/h (1 Bft) 0,00 %
21.11.2014 06:45 4,2 C 75 % 1024,8 hPa 0,0 l/m 0,0 km/h (0 Bft) SO 132 0 min 0,000 mm 0,0 UV-I 0 W/m 0,2 C 4,2 C 0,0 km/h (0 Bft) 0,00 %
21.11.2014 07:00 4,3 C 74 % 1024,9 hPa 0,0 l/m 0,0 km/h (0 Bft) S 180 0 min 0,000 mm 0,0 UV-I 0 W/m 0,1 C 4,3 C 0,0 km/h (0 Bft) 0,00 %
21.11.2014 07:15 4,1 C 76 % 1024,8 hPa 0,0 l/m 0,0 km/h (0 Bft) S 173 0 min 0,000 mm 0,0 UV-I 0 W/m 0,3 C 4,1 C 0,0 km/h (0 Bft) 0,00 %
21.11.2014 07:30 4,0 C 76 % 1025,1 hPa 0,0 l/m 0,0 km/h (0 Bft) S-SO 163 0 min 0,000 mm 0,0 UV-I 0 W/m 0,2 C 4,0 C 0,0 km/h (0 Bft) 0,00 %
21.11.2014 07:45 3,9 C 76 % 1025,1 hPa 0,0 l/m 0,0 km/h (0 Bft) SO 130 15 min 0,000 mm 0,0 UV-I 31 W/m 0,1 C 3,9 C 0,0 km/h (0 Bft) 0,00 %
21.11.2014 08:00 3,7 C 76 % 1025,2 hPa 0,0 l/m 0,4 km/h (0 Bft) O-SO 120 0 min 0,000 mm 0,0 UV-I 44 W/m -0,1 C 3,7 C 4,0 km/h (1 Bft) 0,00 %
21.11.2014 08:15 3,7 C 76 % 1025,2 hPa 0,0 l/m 0,0 km/h (0 Bft) S 184 0 min 0,000 mm 1,0 UV-I 55 W/m -0,1 C 3,7 C 0,0 km/h (0 Bft) 0,00 %
21.11.2014 08:30 4,3 C 73 % 1025,0 hPa 0,0 l/m 0,0 km/h (0 Bft) S 191 0 min 0,000 mm 1,0 UV-I 66 W/m -0,1 C 4,3 C 0,0 km/h (0 Bft) 0,00 %
21.11.2014 08:45 5,0 C 71 % 1024,8 hPa 0,0 l/m 0,4 km/h (0 Bft) SO 136 0 min 0,000 mm 1,0 UV-I 66 W/m 0,2 C 5,0 C 4,0 km/h (1 Bft) 0,00 %
21.11.2014 09:00 5,4 C 70 % 1024,7 hPa 0,0 l/m 2,9 km/h (1 Bft) O-SO 104 0 min 0,000 mm 1,0 UV-I 55 W/m 0,4 C 5,4 C 7,9 km/h (2 Bft) 0,00 %
21.11.2014 09:15 5,5 C 70 % 1024,6 hPa 0,0 l/m 1,8 km/h (1 Bft) SO 128 0 min 0,000 mm 1,0 UV-I 77 W/m 0,5 C 5,5 C 4,0 km/h (1 Bft) 0,00 %
21.11.2014 09:30 5,8 C 70 % 1024,6 hPa 0,0 l/m 0,7 km/h (0 Bft) S 185 0 min 0,000 mm 1,0 UV-I 88 W/m 0,8 C 5,8 C 4,0 km/h (1 Bft) 0,00 %
21.11.2014 09:45 5,7 C 70 % 1024,6 hPa 0,0 l/m 5,4 km/h (1 Bft) O 101 0 min 0,000 mm 1,0 UV-I 99 W/m 0,7 C 5,7 C 7,9 km/h (2 Bft) 0,00 %
21.11.2014 10:00 5,9 C 70 % 1024,4 hPa 0,0 l/m 5,8 km/h (2 Bft) SO 144 0 min 0,000 mm 1,0 UV-I 111 W/m 0,9 C 5,9 C 11,9 km/h (2 Bft) 0,00 %
21.11.2014 10:15 5,9 C 71 % 1024,4 hPa 0,0 l/m 2,2 km/h (1 Bft) SW 222 0 min 0,000 mm 1,0 UV-I 122 W/m 1,1 C 5,9 C 4,0 km/h (1 Bft) 0,00 %
21.11.2014 10:30 6,0 C 70 % 1024,4 hPa 0,0 l/m 8,3 km/h (2 Bft) O 83 0 min 0,000 mm 1,0 UV-I 122 W/m 1,0 C 4,4 C 15,8 km/h (3 Bft) 0,00 %
21.11.2014 10:45 6,1 C 70 % 1024,5 hPa 0,0 l/m 3,2 km/h (1 Bft) S-SO 159 0 min 0,000 mm 1,0 UV-I 133 W/m 1,0 C 6,1 C 7,9 km/h (2 Bft) 0,00 %
21.11.2014 11:00 6,5 C 69 % 1024,1 hPa 0,0 l/m 4,0 km/h (1 Bft) O-SO 107 0 min 0,000 mm 2,0 UV-I 144 W/m 1,2 C 6,5 C 7,9 km/h (2 Bft) 0,00 %
21.11.2014 11:15 6,5 C 69 % 1023,9 hPa 0,0 l/m 2,2 km/h (1 Bft) SO 137 0 min 0,000 mm 2,0 UV-I 155 W/m 1,2 C 6,5 C 7,9 km/h (2 Bft) 0,00 %
21.11.2014 11:30 6,0 C 70 % 1023,9 hPa 0,0 l/m 11,5 km/h (2 Bft) O-SO 117 0 min 0,000 mm 2,0 UV-I 166 W/m 1,0 C 2,2 C 15,8 km/h (3 Bft) 0,00 %
21.11.2014 11:45 6,1 C 68 % 1023,7 hPa 0,0 l/m 5,8 km/h (2 Bft) W 280 0 min 0,000 mm 2,0 UV-I 155 W/m 0,6 C 6,1 C 11,9 km/h (2 Bft) 0,00 %
21.11.2014 12:00 6,1 C 69 % 1023,6 hPa 0,0 l/m 13,3 km/h (3 Bft) O-NO 77 0 min 0,000 mm 1,0 UV-I 125 W/m 0,8 C 1,3 C 19,8 km/h (3 Bft) 0,00 %
21.11.2014 12:15 6,2 C 68 % 1023,4 hPa 0,0 l/m 13,3 km/h (3 Bft) O 97 0 min 0,000 mm 1,0 UV-I 166 W/m 0,7 C 1,4 C 19,8 km/h (3 Bft) 0,00 %
21.11.2014 12:30 6,0 C 68 % 1023,5 hPa 0,0 l/m 3,2 km/h (1 Bft) O-SO 120 15 min 0,000 mm 1,0 UV-I 208 W/m 0,6 C 6,0 C 7,9 km/h (2 Bft) 0,00 %
21.11.2014 12:45 6,2 C 69 % 1023,3 hPa 0,0 l/m 0,0 km/h (0 Bft) S 190 15 min 0,000 mm 1,0 UV-I 234 W/m 0,9 C 6,2 C 0,0 km/h (0 Bft) 0,00 %
21.11.2014 13:00 6,4 C 68 % 1023,1 hPa 0,0 l/m 9,4 km/h (2 Bft) O-SO 103 15 min 0,000 mm 1,0 UV-I 244 W/m 0,9 C 4,0 C 11,9 km/h (2 Bft) 0,00 %
21.11.2014 13:15 6,6 C 67 % 1022,9 hPa 0,0 l/m 10,4 km/h (2 Bft) O 84 15 min 0,000 mm 1,0 UV-I 233 W/m 0,9 C 3,6 C 11,9 km/h (2 Bft) 0,00 %
21.11.2014 13:30 6,7 C 65 % 1022,8 hPa 0,0 l/m 8,3 km/h (2 Bft) S 172 15 min 0,000 mm 1,0 UV-I 434 W/m 0,6 C 5,2 C 11,9 km/h (2 Bft) 0,00 %
21.11.2014 13:45 6,7 C 66 % 1022,7 hPa 0,0 l/m 0,4 km/h (0 Bft) NO 38 15 min 0,000 mm 1,0 UV-I 403 W/m 0,8 C 6,7 C 4,0 km/h (1 Bft) 0,00 %
21.11.2014 14:00 6,7 C 66 % 1022,5 hPa 0,0 l/m 7,9 km/h (2 Bft) SO 127 15 min 0,000 mm 1,0 UV-I 367 W/m 0,8 C 5,5 C 11,9 km/h (2 Bft) 0,00 %
21.11.2014 14:15 6,8 C 65 % 1022,2 hPa 0,0 l/m 4,3 km/h (1 Bft) O-SO 102 15 min 0,000 mm 1,0 UV-I 326 W/m 0,7 C 6,8 C 7,9 km/h (2 Bft) 0,00 %
21.11.2014 14:30 6,6 C 66 % 1022,1 hPa 0,0 l/m 2,2 km/h (1 Bft) SO 129 15 min 0,000 mm 1,0 UV-I 281 W/m 0,7 C 6,6 C 4,0 km/h (1 Bft) 0,00 %
21.11.2014 14:45 6,6 C 66 % 1022,1 hPa 0,0 l/m 0,4 km/h (0 Bft) O 99 15 min 0,000 mm 1,0 UV-I 237 W/m 0,7 C 6,6 C 4,0 km/h (1 Bft) 0,00 %
21.11.2014 15:00 6,5 C 67 % 1022,1 hPa 0,0 l/m 3,2 km/h (1 Bft) O 97 15 min 0,000 mm 1,0 UV-I 182 W/m 0,8 C 6,5 C 7,9 km/h (2 Bft) 0,00 %
21.11.2014 15:15 6,2 C 68 % 1022,3 hPa 0,0 l/m 11,5 km/h (2 Bft) O 99 15 min 0,000 mm 1,0 UV-I 127 W/m 0,7 C 2,4 C 19,8 km/h (3 Bft) 0,00 %
21.11.2014 15:30 5,9 C 69 % 1022,4 hPa 0,0 l/m 0,0 km/h (0 Bft) NW 316 15 min 0,000 mm 0,0 UV-I 73 W/m 0,7 C 5,9 C 0,0 km/h (0 Bft) 0,00 %
21.11.2014 15:45 5,7 C 69 % 1022,3 hPa 0,0 l/m 6,5 km/h (2 Bft) O-SO 119 0 min 0,000 mm 0,0 UV-I 31 W/m 0,5 C 5,6 C 7,9 km/h (2 Bft) 0,00 %
21.11.2014 16:00 5,3 C 71 % 1022,3 hPa 0,0 l/m 5,8 km/h (2 Bft) O 90 0 min 0,000 mm 0,0 UV-I 0 W/m 0,5 C 5,3 C 7,9 km/h (2 Bft) 0,00 %
21.11.2014 16:15 4,9 C 73 % 1022,4 hPa 0,0 l/m 5,4 km/h (1 Bft) O 95 0 min 0,000 mm 0,0 UV-I 0 W/m 0,5 C 4,9 C 7,9 km/h (2 Bft) 0,00 %
21.11.2014 16:30 4,7 C 72 % 1022,5 hPa 0,0 l/m 4,0 km/h (1 Bft) S-SO 167 0 min 0,000 mm 0,0 UV-I 0 W/m 0,1 C 4,7 C 4,0 km/h (1 Bft) 0,00 %
21.11.2014 16:45 4,4 C 74 % 1022,5 hPa 0,0 l/m 5,4 km/h (1 Bft) O 95 0 min 0,000 mm 0,0 UV-I 0 W/m 0,2 C 4,4 C 7,9 km/h (2 Bft) 0,00 %
21.11.2014 17:00 4,2 C 75 % 1022,6 hPa 0,0 l/m 4,7 km/h (1 Bft) S 179 0 min 0,000 mm 0,0 UV-I 0 W/m 0,2 C 4,2 C 7,9 km/h (2 Bft) 0,00 %
21.11.2014 17:15 4,1 C 74 % 1022,6 hPa 0,0 l/m 0,4 km/h (0 Bft) S 179 0 min 0,000 mm 0,0 UV-I 0 W/m -0,1 C 4,1 C 4,0 km/h (1 Bft) 0,00 %
21.11.2014 17:30 4,0 C 75 % 1022,9 hPa 0,0 l/m 3,2 km/h (1 Bft) O 100 0 min 0,000 mm 0,0 UV-I 0 W/m -0,0 C 4,0 C 7,9 km/h (2 Bft) 0,00 %
21.11.2014 17:45 3,9 C 75 % 1023,0 hPa 0,0 l/m 0,4 km/h (0 Bft) S 187 0 min 0,000 mm 0,0 UV-I 0 W/m -0,1 C 3,9 C 4,0 km/h (1 Bft) 0,00 %
21.11.2014 18:00 3,7 C 75 % 1023,0 hPa 0,0 l/m 4,3 km/h (1 Bft) SO 125 0 min 0,000 mm 0,0 UV-I 0 W/m -0,3 C 3,7 C 7,9 km/h (2 Bft) 0,00 %
21.11.2014 18:15 3,7 C 75 % 1023,1 hPa 0,0 l/m 0,0 km/h (0 Bft) O-NO 63 0 min 0,000 mm 0,0 UV-I 0 W/m -0,3 C 3,7 C 0,0 km/h (0 Bft) 0,00 %
21.11.2014 18:30 3,7 C 75 % 1023,0 hPa 0,0 l/m 0,0 km/h (0 Bft) O-NO 63 0 min 0,000 mm 0,0 UV-I 0 W/m -0,3 C 3,7 C 0,0 km/h (0 Bft) 0,00 %
21.11.2014 18:45 3,4 C 77 % 1023,2 hPa 0,0 l/m 6,8 km/h (2 Bft) O-NO 78 0 min 0,000 mm 0,0 UV-I 0 W/m -0,2 C 3,0 C 11,9 km/h (2 Bft) 0,00 %
21.11.2014 19:00 3,3 C 77 % 1023,3 hPa 0,0 l/m 0,4 km/h (0 Bft) SO 124 0 min 0,000 mm 0,0 UV-I 0 W/m -0,3 C 3,3 C 4,0 km/h (1 Bft) 0,00 %
21.11.2014 19:15 3,2 C 76 % 1023,2 hPa 0,0 l/m 2,2 km/h (1 Bft) O-NO 57 0 min 0,000 mm 0,0 UV-I 0 W/m -0,6 C 3,2 C 7,9 km/h (2 Bft) 0,00 %
21.11.2014 19:30 3,1 C 76 % 1023,6 hPa 0,0 l/m 0,7 km/h (0 Bft) SO 134 0 min 0,000 mm 0,0 UV-I 0 W/m -0,7 C 3,1 C 4,0 km/h (1 Bft) 0,00 %
21.11.2014 19:45 3,0 C 76 % 1023,6 hPa 0,0 l/m 2,2 km/h (1 Bft) S 178 0 min 0,000 mm 0,0 UV-I 0 W/m -0,8 C 3,0 C 7,9 km/h (2 Bft) 0,00 %
21.11.2014 20:00 2,9 C 76 % 1023,5 hPa 0,0 l/m 6,8 km/h (2 Bft) O-SO 120 0 min 0,000 mm 0,0 UV-I 0 W/m -0,9 C 2,5 C 7,9 km/h (2 Bft) 0,00 %
21.11.2014 20:15 2,9 C 76 % 1023,5 hPa 0,0 l/m 6,8 km/h (2 Bft) O-SO 119 0 min 0,000 mm 0,0 UV-I 0 W/m -0,9 C 2,5 C 7,9 km/h (2 Bft) 0,00 %
21.11.2014 20:30 2,8 C 76 % 1023,6 hPa 0,0 l/m 4,0 km/h (1 Bft) O 94 0 min 0,000 mm 0,0 UV-I 0 W/m -1,0 C 2,8 C 4,0 km/h (1 Bft) 0,00 %
21.11.2014 20:45 2,7 C 76 % 1023,4 hPa 0,0 l/m 3,2 km/h (1 Bft) O 88 0 min 0,000 mm 0,0 UV-I 0 W/m -1,1 C 2,7 C 4,0 km/h (1 Bft) 0,00 %
21.11.2014 21:00 2,7 C 76 % 1023,6 hPa 0,0 l/m 1,4 km/h (1 Bft) S-SW 195 0 min 0,000 mm 0,0 UV-I 0 W/m -1,1 C 2,7 C 7,9 km/h (2 Bft) 0,00 %
21.11.2014 21:15 2,7 C 76 % 1023,6 hPa 0,0 l/m 13,0 km/h (3 Bft) O-SO 102 0 min 0,000 mm 0,0 UV-I 0 W/m -1,1 C -2,5 C 15,8 km/h (3 Bft) 0,00 %
21.11.2014 21:30 2,5 C 76 % 1023,6 hPa 0,0 l/m 0,7 km/h (0 Bft) S-SW 211 0 min 0,000 mm 0,0 UV-I 0 W/m -1,3 C 2,5 C 4,0 km/h (1 Bft) 0,00 %
21.11.2014 21:45 2,5 C 77 % 1023,6 hPa 0,0 l/m 4,0 km/h (1 Bft) S-SO 154 0 min 0,000 mm 0,0 UV-I 0 W/m -1,1 C 2,5 C 7,9 km/h (2 Bft) 0,00 %
21.11.2014 22:00 2,4 C 73 % 1023,8 hPa 0,0 l/m 4,7 km/h (1 Bft) O-SO 105 0 min 0,000 mm 0,0 UV-I 0 W/m -1,9 C 2,4 C 7,9 km/h (2 Bft) 0,00 %
21.11.2014 22:15 2,3 C 74 % 1023,6 hPa 0,0 l/m 9,7 km/h (2 Bft) O 96 0 min 0,000 mm 0,0 UV-I 0 W/m -1,8 C -0,7 C 15,8 km/h (3 Bft) 0,00 %
21.11.2014 22:30 2,1 C 74 % 1023,6 hPa 0,0 l/m 0,7 km/h (0 Bft) S-SW 211 0 min 0,000 mm 0,0 UV-I 0 W/m -2,0 C 2,1 C 4,0 km/h (1 Bft) 0,00 %
21.11.2014 22:45 2,0 C 75 % 1023,7 hPa 0,0 l/m 0,0 km/h (0 Bft) S-SW 201 0 min 0,000 mm 0,0 UV-I 0 W/m -2,0 C 2,0 C 0,0 km/h (0 Bft) 0,00 %
21.11.2014 23:00 1,9 C 76 % 1023,9 hPa 0,0 l/m 0,0 km/h (0 Bft) W-SW 256 0 min 0,000 mm 0,0 UV-I 0 W/m -1,9 C 1,9 C 0,0 km/h (0 Bft) 0,00 %
21.11.2014 23:15 1,9 C 76 % 1023,7 hPa 0,0 l/m 3,2 km/h (1 Bft) O-SO 122 0 min 0,000 mm 0,0 UV-I 0 W/m -1,9 C 1,9 C 4,0 km/h (1 Bft) 0,00 %
21.11.2014 23:30 1,9 C 76 % 1023,9 hPa 0,0 l/m 4,0 km/h (1 Bft) O-SO 115 0 min 0,000 mm 0,0 UV-I 0 W/m -1,9 C 1,9 C 7,9 km/h (2 Bft) 0,00 %
21.11.2014 23:45 2,1 C 76 % 1023,9 hPa 0,0 l/m 0,7 km/h (0 Bft) O 85 0 min 0,000 mm 0,0 UV-I 0 W/m -1,7 C 2,1 C 4,0 km/h (1 Bft) 0,00 %
_ Min-Zeit 23:00 13:30 14:30 - 00:00 - - - - - - 22:30 21:15 00:00 00:00
Minimum _ 1,9 C 65 % 1022,1 hPa - 0,0 km/h (0 Bft) - - - - - - -2,0 C -2,5 C 0,0 km/h (0 Bft) 0,00 %
_ Max-Zeit 14:15 01:45 00:15 00:00 12:00 - - 07:45 00:00 11:00 13:30 11:00 14:15 12:00 00:00
Maximum _ 6,8 C 79 % 1025,8 hPa 0,0 l/m 13,3 km/h
O-NO (3 Bft)
- - 15 min 0,000 mm 2,0 UV-I 434 W/m 1,2 C 6,8 C 19,8 km/h
O-NO (3 Bft)
0,00 %
Durchschnitt _ 4,4 C 73 % 1024,1 hPa #0,0 l/m 2,7 km/h (1 Bft) O-SO - #3:30 h #0,000 mm 1,1 UV-I 162 W/m 0,1 C 4,1 C 5,0 km/h (1 Bft) 0,00 %